Location: Mannheim
(49.4880°N, 8.4650°E)
Time: 01:09:12
(UTC+01:00)

ISS - Pass Details

Date: 24 January 2023
Orbit: 413 x 419 km, 51.6° (Epoch: 30 January)

Event Time Altitude Azimuth Distance (km) Brightness Sun altitude
Rises 20:07:17 0° 283° (WNW) 2,371 1.3 -28.8°
Reaches altitude 10° 20:09:24 10° 287° (WNW) 1,506 -0.1 -29.1°
Enters shadow 20:10:15 17° 289° (WNW) 1,169 -0.8 -29.3°
